Simultaneous Nadir Overpasses (SNOs) Predictions

Prediction of SNOs between GOES-15 and LANDSAT-8 Satellite Orbit:

Table of predicted SNOs for the next 14.0 days since TLE Epoch: 8/15/2025
Index Date Time (GOES-15) GOES-15 Lat,Lon LANDSAT-8 Lat,Lon Distance(km) Time Diff (sec)
1 08/16/2025 17:59:35 -0.26, 61.67 -0.01, 62.86 135.05 80
2 08/17/2025 06:23:30 0.31, 61.57 1.14, 57.71 439.24 80
3 08/18/2025 17:47:24 -0.26, 61.71 0.62, 65.81 467.26 80
4 08/19/2025 06:11:19 0.31, 61.61 0.51, 60.67 107.12 80
5 08/21/2025 05:56:28 0.30, 61.65 -0.13, 63.62 224.82 80
6 08/21/2025 18:20:31 -0.35, 61.77 -1.05, 58.45 377.11 80
7 08/23/2025 18:08:20 -0.34, 61.80 -0.40, 61.40 44.92 80
8 08/25/2025 17:53:28 -0.32, 61.84 0.20, 64.37 287.39 80
9 08/26/2025 06:17:23 0.37, 61.74 0.92, 59.22 287.16 80
10 08/28/2025 06:02:32 0.36, 61.78 0.25, 62.17 44.95 80
